Location: Alma
(38.7220°N, 88.9090°W)
Time: 23:05:29
(UTC-06:00)

A-11 Canister half - All Passes

Search period start: 16 November 2019 00:00
Search period end: 26 November 2019 00:00
Orbit: 1527 x 1682 km, 47.3° (Epoch: 14 November)

Date Brightness Start Highest point End Pass type
(mag) Time Alt. Az. Time Alt. Az. Time Alt. Az.
16 Nov - 09:29:35 10° SSE 09:35:18 17° ESE 09:40:56 10° E daylight
16 Nov - 11:29:10 10° SW 11:39:00 62° SE 11:48:34 10° ENE daylight
16 Nov - 13:34:22 10° W 13:44:15 64° NNW 13:53:50 10° ENE daylight
16 Nov - 15:41:10 10° WNW 15:50:41 52° N 15:59:52 10° E daylight
16 Nov - 17:46:59 10° WNW 17:56:40 83° NNE 18:06:03 10° ESE visible
16 Nov - 19:52:43 10° WNW 20:01:02 36° SW 20:09:13 10° SSE visible
17 Nov - 09:08:29 10° SSE 09:13:44 16° ESE 09:18:55 10° E daylight
17 Nov - 11:07:35 10° SW 11:17:22 59° SE 11:26:55 10° ENE daylight
17 Nov - 13:12:38 10° WSW 13:22:33 65° NNW 13:32:11 10° ENE daylight
17 Nov - 15:19:26 10° WNW 15:28:58 52° N 15:38:11 10° E daylight
17 Nov - 17:25:19 10° WNW 17:35:01 80° NNE 17:44:24 10° ESE visible
17 Nov - 19:30:59 10° WNW 19:39:28 38° SW 19:47:47 10° SSE visible
18 Nov - 08:47:28 10° SSE 08:52:10 14° ESE 08:56:49 10° E daylight
18 Nov - 10:46:01 10° SSW 10:55:45 56° SE 11:05:16 10° ENE daylight
18 Nov - 12:50:55 10° WSW 13:00:52 67° NNW 13:10:33 10° ENE daylight
18 Nov - 14:57:42 10° WNW 15:07:15 52° N 15:16:29 10° ENE daylight
18 Nov - 17:03:39 10° WNW 17:13:22 78° NNE 17:22:46 10° ESE visible
18 Nov - 19:09:16 10° WNW 19:17:54 41° SW 19:26:21 10° SSE visible
19 Nov - 08:26:33 10° SE 08:30:36 13° ESE 08:34:37 10° E daylight
19 Nov - 10:24:26 10° SSW 10:34:08 54° SE 10:43:35 10° ENE daylight
19 Nov - 12:29:10 10° WSW 12:39:11 69° NNW 12:48:54 10° ENE daylight
19 Nov - 14:35:58 10° WNW 14:45:33 52° N 14:54:48 10° ENE daylight
19 Nov - 16:41:58 10° WNW 16:51:43 76° NNE 17:01:08 10° ESE daylight
19 Nov - 18:47:33 10° WNW 18:56:19 43° SW 19:04:53 10° SSE visible
20 Nov - 08:05:50 10° SE 08:09:03 12° ESE 08:12:15 10° ESE daylight
20 Nov - 10:02:53 10° SSW 10:12:30 51° SE 10:21:55 10° ENE daylight
20 Nov - 12:07:27 10° WSW 12:17:30 71° NNW 12:27:15 10° ENE daylight
20 Nov - 14:14:13 10° WNW 14:23:50 52° N 14:33:08 10° ENE daylight
20 Nov - 16:20:18 10° WNW 16:30:03 74° NNE 16:39:28 10° ESE daylight
20 Nov - 18:25:51 10° WNW 18:34:45 45° SW 18:43:25 10° SSE visible
21 Nov - 07:45:29 10° SE 07:47:29 11° ESE 07:49:28 10° ESE daylight
21 Nov - 09:41:21 10° SSW 09:50:53 49° SE 10:00:14 10° ENE daylight
21 Nov - 11:45:44 10° WSW 11:55:48 73° NNW 12:05:37 10° ENE daylight
21 Nov - 13:52:28 10° WNW 14:02:07 52° N 14:11:25 10° ENE daylight
21 Nov - 15:58:37 10° WNW 16:08:23 72° NNE 16:17:49 10° ESE daylight
21 Nov - 18:04:08 10° WNW 18:13:09 48° SW 18:21:57 10° SSE visible
22 Nov - 09:19:49 10° SSW 09:29:16 46° SE 09:38:33 10° ENE daylight
22 Nov - 11:24:00 10° WSW 11:34:07 75° NNW 11:43:58 10° ENE daylight
22 Nov - 13:30:44 10° WNW 13:40:23 52° N 13:49:45 10° ENE daylight
22 Nov - 15:36:55 10° WNW 15:46:43 70° NNE 15:56:10 10° ESE daylight
22 Nov - 17:42:26 10° WNW 17:51:34 50° SW 18:00:27 10° SSE visible
22 Nov - 19:52:58 10° WSW 19:54:48 11° WSW 19:56:37 10° SW visible
23 Nov - 08:58:17 10° SSW 09:07:39 44° SE 09:16:51 10° ENE daylight
23 Nov - 11:02:17 10° WSW 11:12:26 77° NNW 11:22:19 10° ENE daylight
23 Nov - 13:08:58 10° WNW 13:18:40 52° N 13:28:04 10° ENE daylight
23 Nov - 15:15:14 10° WNW 15:25:02 68° NNE 15:34:29 10° ESE daylight
23 Nov - 17:20:44 10° WNW 17:29:59 53° SW 17:38:57 10° SSE visible
23 Nov - 19:30:13 10° WSW 19:33:16 12° WSW 19:36:19 10° SW visible
24 Nov - 08:36:47 10° SSW 08:46:02 42° SE 08:55:09 10° ENE daylight
24 Nov - 10:40:36 10° WSW 10:50:45 79° NNW 11:00:40 10° ENE daylight
24 Nov - 12:47:13 10° W 12:56:57 52° N 13:06:23 10° ENE daylight
24 Nov - 14:53:33 10° WNW 15:03:22 66° NNE 15:12:49 10° ESE daylight
24 Nov - 16:59:02 10° WNW 17:08:23 56° SW 17:17:27 10° SSE visible
24 Nov - 19:07:51 10° W 19:11:44 13° WSW 19:15:36 10° SSW visible
25 Nov - 08:15:17 10° SSW 08:24:25 40° SE 08:33:26 10° ENE daylight
25 Nov - 10:18:53 10° WSW 10:29:04 81° NNW 10:39:01 10° ENE daylight
25 Nov - 12:25:28 10° W 12:35:13 53° N 12:44:41 10° ENE daylight
25 Nov - 14:31:50 10° WNW 14:41:40 65° NNE 14:51:09 10° ESE daylight
25 Nov - 16:37:21 10° WNW 16:46:47 59° SW 16:55:55 10° SE daylight
25 Nov - 18:45:39 10° W 18:50:12 14° WSW 18:54:42 10° SSW visible
